[[{"header":{"parameterUnit":"m.s-1","parameterCategory":2,"la1":30.2991,"la2":30.254,"lo1":-89.0895,"lo2":-89.0444,"dy":0.0017,"dx":0.0017,"nx":28,"ny":28,"refTime":"2025-02-07T09:00:00:Z","depth":"0","parameterNumber":2,"parameterNumberName":"U-component_of_CURRENTS"},"data":[0,0,0,0,0,0,0,0,0,0,0,0,0,0,0,0,0,0,0,0,0,0,0,0,0,0,0,0,0,0,0,0,0,0,0,0,0,0,0,0,0,0,0,0,0,0,0,0,0,0,0,0,0,0,0,0,0,0,0.3821,0.3822,0,0.3858,0.3858,0.3858,0.3847,0.3846,0.3846,0.3845,0.3841,0.3841,0.3841,0,0,0,0,0,0,0,0,0,0,0,0,0,0.3764,0.3764,0.3821,0.3822,0.3823,0.3858,0.3858,0.3858,0.3847,0.3846,0.3846,0.3845,0.3841,0.3841,0.3841,0,0,0,0,0,0,0,0,0,0,0,0,0,0.379,0.3765,0.3821,0.3824,0.3825,0.3858,0.3858,0.3858,0.3847,0.3846,0.3845,0.3845,0.384,0.3841,0.3841,0.3856,0,0,0.3842,0.3843,0,0,0,0,0,0,0,0,0.3788,0.3791,0.3823,0.3824,0.3825,0.385,0.3836,0.3857,0.3847,0.3834,0.3845,0.3845,0.3843,0.3843,0.3847,0.3856,0.3856,0.3843,0.3843,0.3843,0.3843,0,0,0,0,0,0,0,0.3786,0.379,0.3832,0.3824,0.3825,0.3832,0.3834,0.384,0.3838,0.3835,0.3836,0.3846,0.3843,0.3846,0.3846,0.3856,0.3842,0.3843,0.3843,0.3843,0.3931,0.3932,0,0,0,0,0,0,0.3789,0.3788,0.3831,0.3833,0.3809,0.3833,0.3836,0.384,0.3839,0.384,0.3847,0.3846,0.3846,0.3846,0.3846,0.3899,0.3843,0.3843,0.3844,0.3928,0.3931,0.3933,0,0,0,0,0,0,0.3788,0.3792,0.3829,0.3815,0.382,0.3835,0.384,0.3841,0.385,0.3849,0.3847,0.3856,0.3845,0.3846,0.387,0.3897,0.3843,0.3844,0.3926,0.3929,0.3932,0.3981,0,0,0,0,0,0,0.3786,0.3791,0.3794,0.3815,0.3821,0.3857,0.3841,0.3842,0.3859,0.3858,0.3856,0.3855,0.3845,0.3869,0.387,0.3896,0.3844,0.3923,0.3927,0.3931,0.3977,0.3986,0.3993,0,0,0,0,0,0.3783,0.379,0.3793,0.3799,0.3824,0.3858,0.3862,0.3868,0.386,0.3872,0.3877,0.3855,0.3895,0.3871,0.3872,0.3899,0.3921,0.3926,0.3931,0.3973,0.3984,0.3993,0,0,0,0,0,0,0.3762,0.3791,0.3794,0.3807,0.3836,0.3858,0.387,0.3875,0.3888,0.3886,0.3877,0.3877,0.3913,0.3904,0.3878,0.3939,0.3907,0.3912,0.3939,0.3949,0.3957,0.3973,0.3844,0,0,0,0,0,0.3761,0.3774,0.3805,0.3817,0.3833,0.3853,0.3867,0.3876,0.3892,0.3897,0.3898,0.3908,0.3933,0.3938,0.3954,0.3979,0.4008,0.4001,0.4009,0.4016,0.4032,0.4107,0.4123,0.3949,0.3949,0.3948,0,0,0.3756,0.3774,0.3781,0.3814,0.3833,0.3867,0.3858,0.3887,0.3915,0.3895,0.3925,0.3937,0.3949,0.3986,0.4,0.3978,0.4083,0.4022,0.4027,0.404,0.4114,0.4131,0.4146,0.3952,0.3951,0.3951,0,0,0.376,0.3771,0.3788,0.3817,0.3857,0.3877,0.389,0.3921,0.3933,0.3968,0.3972,0.4006,0.4021,0.4048,0.4061,0.4126,0.4128,0.4125,0.4169,0.4242,0.4257,0.427,0.4334,0.4353,0.4122,0.4122,0.4122,0,0.3753,0.3776,0.3799,0.3831,0.3856,0.3886,0.3917,0.3944,0.3979,0.4005,0.3983,0.4057,0.4058,0.413,0.4149,0.4145,0.4182,0.4126,0.4252,0.4266,0.4279,0.4341,0.4361,0.4125,0.4125,0.4125,0.4124,0,0.3774,0.3797,0.3814,0.3862,0.3895,0.3927,0.3975,0.4007,0.4024,0.4058,0.4126,0.4141,0.4188,0.4194,0.4186,0.4283,0.4279,0.4257,0.4224,0.43,0.436,0.438,0.4129,0.4128,0.4127,0.4127,0,0,0.3744,0.3813,0.3817,0.3845,0.3913,0.3942,0.4002,0.407,0.4127,0.4157,0.4229,0.4271,0.429,0.4309,0.4313,0.4366,0.4482,0.4348,0.4351,0.4406,0.4647,0.4615,0.4633,0.4481,0.4484,0.4487,0.4654,0,0.3751,0.3802,0.384,0.3898,0.393,0.3985,0.4043,0.4113,0.4173,0.4253,0.4296,0.4367,0.4333,0.4364,0.4415,0.448,0.4537,0.4439,0.4571,0.4575,0.4533,0.4656,0.4512,0.4647,0.4674,0.4677,0.468,0,0.3752,0.379,0.3836,0.3919,0.394,0.3979,0.4086,0.4148,0.4276,0.4332,0.4417,0.4458,0.4561,0.4506,0.4658,0.4599,0.463,0.4662,0.4668,0.4637,0.4581,0.4577,0.4682,0.4524,0.471,0.4708,0.4705,0,0.3706,0.3785,0.3817,0.3844,0.3945,0.3975,0.4036,0.4162,0.4251,0.4395,0.4492,0.459,0.4679,0.4732,0.4796,0.4742,0.4957,0.4888,0.4889,0.4886,0.4791,0.4773,0.4754,0.4992,0.4991,0.4991,0.499,0,0.369,0.3717,0.3794,0.3812,0.3874,0.3951,0.4049,0.4136,0.4295,0.4433,0.453,0.4659,0.4744,0.4863,0.4869,0.4968,0.5024,0.4939,0.4945,0.4804,0.4786,0.4663,0.4595,0.4997,0.4996,0.4994,0.4993,0,0.3634,0.3679,0.3728,0.3819,0.3849,0.3894,0.4052,0.415,0.4306,0.4494,0.4552,0.4764,0.4925,0.4997,0.5121,0.5093,0.5024,0.5161,0.4989,0.4971,0.4784,0.4724,0.4624,0.4483,0.5196,0.5197,0.5197,0,0.361,0.3625,0.3716,0.3758,0.3794,0.3883,0.3966,0.4128,0.4249,0.4556,0.4646,0.4872,0.5008,0.5199,0.5197,0.5241,0.5053,0.5119,0.4978,0.4793,0.4733,0.4548,0.4421,0.4877,0.4875,0.4873,0.4871,0,0.358,0.3606,0.3658,0.3744,0.3816,0.3897,0.4018,0.4106,0.4329,0.449,0.471,0.4842,0.5069,0.5064,0.5149,0.5147,0.4877,0.5081,0.494,0.4541,0.4291,0.4149,0.4742,0.4855,0.4857,0.4858,0.4859,0.4859,0.3569,0.3599,0.3679,0.3743,0.3825,0.3889,0.391,0.4061,0.4207,0.4383,0.4608,0.4711,0.4876,0.4976,0.4948,0.4811,0.4773,0.4655,0.4623,0.447,0.4248,0.4809,0.4888,0.4889,0.4891,0.4892,0.4894,0,0.3576,0.3617,0.3684,0.3748,0.3782,0.384,0.3935,0.3922,0.4005,0.4187,0.4319,0.4427,0.4481,0.4552,0.4558,0.4377,0.4164,0.4238,0.3927,0.3841,0.4399,0.4296,0.4188,0.4188,0.4189,0.4189,0.4189,0.4189,0.3598,0.3645,0.3661,0.3682,0.3708,0.3678,0.3678,0.367,0.3725,0.3747,0.376,0.3873,0.4143,0.4307,0.4167,0.4043,0.3675,0.3545,0.3488,0.3868,0.3902,0.3934,0.3818,0.3612,0.3611,0.2773,0.2766,0.2762]},{"header":{"parameterUnit":"m.s-1","parameterCategory":2,"la1":30.2991,"la2":30.254,"lo1":-89.0895,"lo2":-89.0444,"dy":0.0017,"dx":0.0017,"nx":28,"ny":28,"refTime":"2025-02-07T09:00:00:Z","depth":"0","parameterNumber":3,"parameterNumberName":"V-component_of_CURRENTS"},"data":[0,0,0,0,0,0,0,0,0,0,0,0,0,0,0,0,0,0,0,0,0,0,0,0,0,0,0,0,0,0,0,0,0,0,0,0,0,0,0,0,0,0,0,0,0,0,0,0,0,0,0,0,0,0,0,0,0,0,0.0229,0.0229,0,0.0153,0.0152,0.0151,0.0095,0.0095,0.0095,0.0094,-0.0004,-0.0007,-0.0009,0,0,0,0,0,0,0,0,0,0,0,0,0,0.0266,0.0266,0.0229,0.0229,0.0228,0.0153,0.0152,0.0151,0.0095,0.0095,0.0094,0.0094,-0.0003,-0.0006,-0.0009,0,0,0,0,0,0,0,0,0,0,0,0,0,0.0224,0.0266,0.0229,0.0193,0.0189,0.0153,0.0152,0.015,0.0095,0.0095,0.0094,0.0094,-0.0003,-0.0006,-0.0009,-0.0023,0,0,-0.002,-0.0022,0,0,0,0,0,0,0,0,0.0226,0.0222,0.0199,0.0195,0.0191,0.0135,0.0129,0.0092,0.0095,0.0128,0.0094,0.0094,0.0042,0.0035,0.0018,-0.0028,-0.0032,-0.0021,-0.0023,-0.0024,-0.0025,0,0,0,0,0,0,0,0.0229,0.0225,0.0197,0.0198,0.0193,0.0159,0.0153,0.0121,0.0086,0.0125,0.0122,0.0117,0.0039,0.0022,0.0016,-0.0034,-0.0021,-0.0024,-0.0026,-0.0027,-0.0088,-0.0088,0,0,0,0,0,0,0.0247,0.0228,0.0199,0.0195,0.021,0.0159,0.0152,0.0152,0.0087,0.0078,0.0117,0.0115,0.0028,0.002,0.0012,0.0018,-0.0024,-0.0028,-0.003,-0.0089,-0.0088,-0.0088,0,0,0,0,0,0,0.0248,0.0245,0.0202,0.0211,0.0203,0.016,0.0159,0.015,0.0138,0.0082,0.0071,0.0115,0.0028,0.0017,-0.0005,0.0013,-0.0029,-0.0033,-0.009,-0.0089,-0.0088,0.0013,0,0,0,0,0,0,0.025,0.0246,0.0251,0.0213,0.0204,0.0196,0.0159,0.0149,0.0136,0.0132,0.0076,0.0066,0.0027,0.0001,-0.0009,0.0007,-0.0035,-0.009,-0.0089,-0.0088,0.0009,0.0017,0.0024,0,0,0,0,0,0.0251,0.0268,0.0252,0.0248,0.0212,0.0197,0.019,0.0155,0.0137,0.014,0.0102,0.0068,-0.0,-0.0002,-0.0013,0.0002,-0.0091,-0.0089,-0.0088,0.0006,0.0015,0.0024,0,0,0,0,0,0,0.0285,0.0263,0.0244,0.0252,0.0232,0.0189,0.0189,0.0164,0.0135,0.0131,0.0075,0.0063,0.0048,0.0011,0.0011,-0.0014,-0.0052,-0.0052,0.0024,0.0032,0.004,0.0065,-0.0038,0,0,0,0,0,0.0296,0.0302,0.0272,0.0277,0.0271,0.0231,0.022,0.0199,0.0168,0.0155,0.0115,0.0074,0.0043,0.0028,-0.0008,-0.0018,-0.0054,-0.0017,-0.0009,-0.0002,0.001,-0.0026,-0.002,-0.0084,-0.0084,-0.0084,0,0,0.0309,0.0298,0.03,0.0284,0.0263,0.0272,0.0223,0.0217,0.0223,0.0149,0.0144,0.0098,0.0045,0.0033,0.0023,0.0006,-0.0005,-0.0001,0.0005,0.0014,-0.0024,-0.0018,-0.0012,-0.0083,-0.0083,-0.0083,0,0,0.0349,0.0331,0.0353,0.0343,0.0325,0.0305,0.031,0.0275,0.0259,0.0246,0.0196,0.0166,0.0116,0.0086,0.0063,0.0091,0.0035,0.0075,0.0137,0.0103,0.0108,0.0113,0.0074,0.0074,0.0082,0.0082,0.0082,0,0.0366,0.0389,0.0356,0.0376,0.0381,0.0329,0.036,0.0335,0.0297,0.0295,0.0259,0.0193,0.0143,0.0136,0.014,0.011,0.0078,0.0111,0.0115,0.0118,0.0121,0.008,0.0079,0.0087,0.0087,0.0086,0.0086,0,0.0423,0.0441,0.0454,0.0465,0.0466,0.0482,0.0454,0.0444,0.0414,0.0392,0.0371,0.0297,0.0262,0.0237,0.0194,0.0193,0.0161,0.0128,0.0098,0.0134,0.0088,0.0085,0.0094,0.0092,0.0091,0.009,0,0,0.0467,0.0492,0.0497,0.0526,0.0519,0.0532,0.0539,0.0542,0.0567,0.0502,0.0525,0.0446,0.0403,0.0374,0.0312,0.0275,0.0256,0.0217,0.0212,0.019,0.0178,0.017,0.0165,0.0225,0.0225,0.0225,0.014,0,0.0524,0.0593,0.0585,0.0651,0.0688,0.0652,0.0671,0.0663,0.0646,0.0651,0.0566,0.0557,0.0458,0.0445,0.0392,0.0302,0.0252,0.0282,0.0137,0.0133,0.013,0.0163,0.0192,0.012,0.0136,0.0135,0.0135,0,0.0584,0.0627,0.0705,0.076,0.0773,0.0797,0.0833,0.085,0.0833,0.0821,0.0785,0.0716,0.0656,0.0561,0.0416,0.0441,0.0317,0.0229,0.0223,0.0181,0.012,0.0084,0.0113,-0.0107,0.013,0.013,0.013,0,0.0645,0.0713,0.0785,0.0801,0.0847,0.087,0.0894,0.09,0.0952,0.0935,0.0976,0.0863,0.0841,0.0669,0.0478,0.0447,0.0319,0.0251,0.0119,0.0116,0.0096,0.0092,-0.0094,0.0135,0.0135,0.0135,0.0135,0,0.0714,0.077,0.0819,0.0858,0.0953,0.0952,0.1053,0.1051,0.1099,0.1207,0.1078,0.1131,0.0869,0.0759,0.0542,0.0344,0.0363,0.0142,0.0101,0.0131,0.0131,-0.0099,-0.0229,0.0132,0.0133,0.0133,0.0134,0,0.077,0.0796,0.0888,0.0955,0.0983,0.1054,0.117,0.1255,0.1278,0.1415,0.1419,0.1344,0.1203,0.0932,0.067,0.0464,0.0123,0.0157,0.0209,0.0177,-0.0161,-0.0285,-0.052,-0.0598,-0.0005,-0.0005,-0.0006,0,0.0806,0.0858,0.0967,0.104,0.1075,0.1185,0.1274,0.1332,0.1448,0.157,0.1653,0.1551,0.1532,0.114,0.0726,0.0345,0.0115,0.0117,0.0051,-0.0162,-0.0333,-0.0433,-0.0487,0.0054,0.0054,0.0054,0.0054,0,0.0885,0.0917,0.0999,0.1149,0.1256,0.1398,0.1534,0.1651,0.1763,0.1901,0.2047,0.2038,0.1666,0.1295,0.0755,0.0483,-0.0024,0.0105,-0.013,-0.0307,-0.0413,-0.051,0.0082,0.0054,0.0054,0.0054,0.0054,0.0054,0.0945,0.1022,0.1132,0.1276,0.1411,0.1593,0.1735,0.1917,0.2135,0.236,0.2332,0.2382,0.1805,0.1074,0.0689,-0.0028,-0.0052,-0.0249,-0.0384,-0.0466,-0.0537,0.0061,-0.0003,-0.0003,-0.0003,-0.0004,-0.0004,0,0.1028,0.1118,0.1258,0.1434,0.1599,0.1653,0.1903,0.2075,0.2364,0.2555,0.2691,0.2417,0.1751,0.104,0.007,-0.0419,-0.0598,-0.0698,-0.0847,-0.088,-0.0358,-0.035,-0.0473,-0.0473,-0.0473,-0.0472,-0.0472,-0.0472,0.1078,0.1217,0.1288,0.1557,0.1692,0.1931,0.2083,0.2351,0.2538,0.2783,0.2808,0.2764,0.2163,0.0463,-0.0645,-0.0882,-0.124,-0.1338,-0.1504,-0.1175,-0.1144,-0.1114,-0.1138,-0.1424,-0.1425,-0.1941,-0.1946,-0.1951]}],[{"header":{"parameterUnit":"m.s-1","parameterCategory":2,"la1":30.2991,"la2":30.254,"lo1":-89.0895,"lo2":-89.0444,"dy":0.0017,"dx":0.0017,"nx":28,"ny":28,"refTime":"2025-02-07T09:00:00:Z","depth":"2","parameterNumber":2,"parameterNumberName":"U-component_of_CURRENTS"},"data":[0,0,0,0,0,0,0,0,0,0,0,0,0,0,0,0,0,0,0,0,0,0,0,0,0,0,0,0,0,0,0,0,0,0,0,0,0,0,0,0,0,0,0,0,0,0,0,0,0,0,0,0,0,0,0,0,0,0,0.3183,0.3184,0,0.3228,0.3228,0.3228,0.3233,0.3233,0.3233,0.3233,0.3251,0.3251,0.3252,0,0,0,0,0,0,0,0,0,0,0,0,0,0.3112,0.3113,0.3183,0.3184,0.3185,0.3227,0.3228,0.3228,0.3233,0.3233,0.3233,0.3233,0.325,0.3251,0.3252,0,0,0,0,0,0,0,0,0,0,0,0,0,0.3145,0.3113,0.3183,0.3195,0.3197,0.3227,0.3228,0.3228,0.3233,0.3233,0.3233,0.3233,0.325,0.3251,0.3252,0.326,0,0,0.3254,0.3255,0,0,0,0,0,0,0,0,0.3143,0.3147,0.3193,0.3195,0.3197,0.3228,0.3209,0.3239,0.3233,0.3216,0.3233,0.3233,0.3243,0.3245,0.3248,0.3261,0.3261,0.3254,0.3255,0.3255,0.3256,0,0,0,0,0,0,0,0.314,0.3145,0.3197,0.3194,0.3196,0.3202,0.3206,0.3215,0.3226,0.3217,0.3219,0.3229,0.3243,0.3247,0.3249,0.3262,0.3254,0.3255,0.3256,0.3256,0.3351,0.3353,0,0,0,0,0,0,0.3142,0.3143,0.3196,0.3199,0.3173,0.3204,0.3208,0.3215,0.3227,0.323,0.323,0.323,0.3246,0.3248,0.3249,0.3312,0.3255,0.3256,0.3257,0.3349,0.3351,0.3353,0,0,0,0,0,0,0.3141,0.3146,0.3194,0.3175,0.3182,0.3205,0.3213,0.3216,0.3234,0.3237,0.3239,0.3247,0.3246,0.3248,0.3279,0.331,0.3256,0.3257,0.3346,0.335,0.3352,0.3403,0,0,0,0,0,0,0.3138,0.3145,0.3153,0.3175,0.3183,0.3224,0.3214,0.3217,0.3242,0.3243,0.3252,0.3253,0.3246,0.3278,0.328,0.3311,0.3258,0.3344,0.3348,0.3351,0.3399,0.3408,0.3415,0,0,0,0,0,0.3135,0.3146,0.3153,0.316,0.3192,0.3225,0.323,0.3243,0.3243,0.3257,0.327,0.3253,0.3304,0.328,0.3282,0.3314,0.3342,0.3347,0.3351,0.3395,0.3406,0.3415,0,0,0,0,0,0,0.3117,0.3149,0.3157,0.3176,0.3205,0.3228,0.3244,0.3254,0.3274,0.3278,0.3274,0.3276,0.3319,0.3313,0.3287,0.3355,0.3323,0.3328,0.3356,0.3365,0.3373,0.3386,0.3259,0,0,0,0,0,0.3118,0.3136,0.3168,0.3186,0.3202,0.3226,0.3242,0.3256,0.3277,0.3286,0.3295,0.3311,0.3338,0.3348,0.3365,0.3396,0.3418,0.3421,0.3429,0.3436,0.345,0.3516,0.3531,0.3368,0.3368,0.3368,0,0,0.3115,0.3137,0.3146,0.3184,0.3206,0.3238,0.3235,0.3269,0.3298,0.3285,0.3325,0.334,0.3354,0.3395,0.3413,0.3392,0.3496,0.3442,0.3447,0.3458,0.3522,0.3538,0.3552,0.3371,0.3371,0.337,0,0,0.3122,0.3141,0.3161,0.319,0.3234,0.3253,0.3268,0.3304,0.3323,0.3363,0.337,0.341,0.3433,0.3459,0.3472,0.3537,0.354,0.3542,0.3587,0.365,0.3664,0.3677,0.373,0.3747,0.3541,0.3541,0.3541,0,0.3119,0.3145,0.3172,0.3204,0.3231,0.3264,0.3295,0.3326,0.3367,0.3394,0.3384,0.3463,0.3468,0.3537,0.3559,0.3556,0.3589,0.3544,0.3661,0.3673,0.3685,0.3737,0.3755,0.3544,0.3544,0.3543,0.3543,0,0.3141,0.3168,0.3186,0.3236,0.327,0.3303,0.3352,0.339,0.3416,0.3448,0.3523,0.3544,0.3593,0.3603,0.3597,0.369,0.3686,0.3665,0.3633,0.3705,0.3755,0.3772,0.3548,0.3547,0.3546,0.3546,0,0,0.3112,0.3185,0.319,0.3218,0.3289,0.3315,0.3381,0.3446,0.3502,0.3543,0.3616,0.3665,0.3687,0.3707,0.3717,0.3768,0.3874,0.3753,0.3755,0.3801,0.4019,0.3966,0.398,0.3874,0.3878,0.388,0.4022,0,0.3119,0.317,0.3212,0.3267,0.3298,0.3358,0.3417,0.3485,0.3549,0.3629,0.3678,0.3752,0.3725,0.3764,0.3812,0.387,0.3923,0.3838,0.3948,0.3952,0.3891,0.3999,0.3671,0.3765,0.4039,0.4042,0.4044,0,0.312,0.3156,0.3205,0.3285,0.3306,0.3349,0.3455,0.3518,0.3642,0.3701,0.3788,0.3833,0.3933,0.3891,0.4027,0.3976,0.4005,0.4035,0.4041,0.3987,0.3932,0.3738,0.3787,0.4073,0.4071,0.4069,0.4067,0,0.3071,0.3148,0.3182,0.3209,0.3309,0.3349,0.341,0.3534,0.3611,0.3763,0.3842,0.3951,0.4032,0.4089,0.4148,0.4104,0.429,0.4231,0.4211,0.4207,0.3947,0.3914,0.4325,0.4325,0.4325,0.4325,0.4324,0,0.3052,0.3079,0.3162,0.3181,0.3241,0.3323,0.3417,0.3507,0.3656,0.376,0.3875,0.3985,0.409,0.4195,0.4211,0.4284,0.4345,0.4253,0.4254,0.3956,0.3924,0.4197,0.418,0.433,0.4329,0.4328,0.4327,0,0.2993,0.3044,0.309,0.3185,0.3217,0.3263,0.3407,0.3482,0.3641,0.3787,0.3843,0.4052,0.4201,0.4284,0.4413,0.4378,0.4439,0.4438,0.4084,0.404,0.4293,0.4277,0.4439,0.4438,0.4438,0.4438,0.4437,0,0.2968,0.2984,0.3074,0.31,0.3142,0.3227,0.3288,0.3453,0.354,0.3815,0.3872,0.4095,0.421,0.4397,0.4395,0.4441,0.4483,0.4151,0.4,0.4328,0.4312,0.4297,0.4282,0.3675,0.3669,0.3664,0.3659,0,0.2923,0.2955,0.2992,0.3045,0.3098,0.3161,0.3259,0.3317,0.352,0.3654,0.384,0.3967,0.4179,0.4105,0.4197,0.4167,0.4115,0.4047,0.4502,0.3702,0.362,0.3601,0.3609,0.3612,0.3617,0.362,0.3623,0.3625,0.2887,0.2896,0.2942,0.2975,0.3031,0.3058,0.3062,0.3179,0.3287,0.3434,0.3659,0.3744,0.3845,0.3827,0.3738,0.3672,0.3943,0.3746,0.3757,0.3774,0.3666,0.3588,0.3554,0.3558,0.3561,0.3565,0.3568,0,0.2827,0.2839,0.2869,0.2888,0.2878,0.2957,0.3009,0.2975,0.3017,0.3215,0.3342,0.3166,0.3171,0.3251,0.3087,0.3117,0.3027,0.2983,0.2815,0.2868,0.2914,0.2753,0.2403,0.2398,0.2394,0.2391,0,0,0.2797,0.2777,0.2773,0.2713,0.2728,0.2669,0.2657,0.2642,0.2712,0.2726,0.2768,0.3058,0.3189,0.2749,0.2714,0.2518,0.266,0.2429,0.3379,0.3236,0.3275,0.3391,0.3211,0,0,0,0,0]},{"header":{"parameterUnit":"m.s-1","parameterCategory":2,"la1":30.2991,"la2":30.254,"lo1":-89.0895,"lo2":-89.0444,"dy":0.0017,"dx":0.0017,"nx":28,"ny":28,"refTime":"2025-02-07T09:00:00:Z","depth":"2","parameterNumber":3,"parameterNumberName":"V-component_of_CURRENTS"},"data":[0,0,0,0,0,0,0,0,0,0,0,0,0,0,0,0,0,0,0,0,0,0,0,0,0,0,0,0,0,0,0,0,0,0,0,0,0,0,0,0,0,0,0,0,0,0,0,0,0,0,0,0,0,0,0,0,0,0,0.0097,0.0096,0,0.0029,0.0028,0.0027,-0.0022,-0.0022,-0.0023,-0.0023,-0.0111,-0.0113,-0.0115,0,0,0,0,0,0,0,0,0,0,0,0,0,0.013,0.013,0.0097,0.0096,0.0096,0.0029,0.0028,0.0027,-0.0022,-0.0022,-0.0023,-0.0023,-0.011,-0.0113,-0.0116,0,0,0,0,0,0,0,0,0,0,0,0,0,0.0093,0.013,0.0097,0.0065,0.0061,0.0029,0.0028,0.0026,-0.0022,-0.0022,-0.0023,-0.0023,-0.011,-0.0113,-0.0116,-0.0129,0,0,-0.0126,-0.0127,0,0,0,0,0,0,0,0,0.0095,0.0091,0.007,0.0067,0.0063,0.0013,0.0007,-0.0026,-0.0022,0.0008,-0.0023,-0.0023,-0.007,-0.0076,-0.0091,-0.0133,-0.0137,-0.0126,-0.0128,-0.0129,-0.013,0,0,0,0,0,0,0,0.0098,0.0094,0.0068,0.0069,0.0065,0.0035,0.003,0.0,-0.003,0.0005,0.0002,-0.0003,-0.0072,-0.0088,-0.0093,-0.0138,-0.0126,-0.0129,-0.0131,-0.0132,-0.0187,-0.0187,0,0,0,0,0,0,0.0113,0.0097,0.007,0.0066,0.0081,0.0035,0.0029,0.0028,-0.003,-0.0038,-0.0002,-0.0005,-0.0082,-0.009,-0.0097,-0.0091,-0.0129,-0.0132,-0.0134,-0.0188,-0.0187,-0.0187,0,0,0,0,0,0,0.0114,0.0112,0.0073,0.0081,0.0074,0.0035,0.0034,0.0027,0.0016,-0.0035,-0.0044,-0.0004,-0.0083,-0.0092,-0.0112,-0.0096,-0.0134,-0.0137,-0.0188,-0.0188,-0.0187,-0.0095,0,0,0,0,0,0,0.0116,0.0113,0.0117,0.0082,0.0074,0.0067,0.0035,0.0026,0.0015,0.0011,-0.0039,-0.0048,-0.0084,-0.0107,-0.0115,-0.0101,-0.0139,-0.0189,-0.0188,-0.0187,-0.0099,-0.0092,-0.0085,0,0,0,0,0,0.0117,0.0132,0.0118,0.0115,0.0083,0.0068,0.0062,0.0031,0.0015,0.0018,-0.0016,-0.0047,-0.0108,-0.0109,-0.0119,-0.0105,-0.0189,-0.0188,-0.0187,-0.0102,-0.0093,-0.0086,0,0,0,0,0,0,0.0148,0.0127,0.0112,0.0119,0.01,0.0061,0.0061,0.0039,0.0014,0.001,-0.004,-0.0051,-0.0064,-0.0098,-0.0098,-0.012,-0.0154,-0.0155,-0.0086,-0.0078,-0.0071,-0.0049,-0.0142,0,0,0,0,0,0.0158,0.0163,0.0136,0.0141,0.0136,0.0099,0.0089,0.0071,0.0043,0.0031,-0.0005,-0.0042,-0.0069,-0.0082,-0.0115,-0.0123,-0.016,-0.0122,-0.0116,-0.0109,-0.0099,-0.0139,-0.0134,-0.0183,-0.0183,-0.0183,0,0,0.0171,0.016,0.0162,0.0148,0.0129,0.0137,0.0092,0.0087,0.0093,0.0026,0.0022,-0.0019,-0.0067,-0.0078,-0.0086,-0.0102,-0.0115,-0.0108,-0.0102,-0.0095,-0.0137,-0.0132,-0.0128,-0.0183,-0.0183,-0.0183,0,0,0.0206,0.0191,0.021,0.0202,0.0186,0.0167,0.0172,0.014,0.0125,0.0114,0.0069,0.0041,-0.0003,-0.003,-0.005,-0.0026,-0.0079,-0.0039,0.0016,-0.0021,-0.0017,-0.0014,-0.0053,-0.0054,-0.0033,-0.0033,-0.0033,0,0.0223,0.0243,0.0213,0.0231,0.0236,0.0189,0.0217,0.0195,0.0161,0.0157,0.0126,0.0064,0.0021,0.0013,0.0019,-0.0009,-0.0041,-0.0008,-0.0011,-0.0009,-0.0007,-0.0048,-0.005,-0.0028,-0.0029,-0.0029,-0.003,0,0.0273,0.029,0.0302,0.0312,0.0313,0.0327,0.0302,0.0294,0.0267,0.0246,0.0224,0.0158,0.0125,0.0103,0.0067,0.0062,0.0032,0.0002,-0.0027,0.0004,-0.0042,-0.0046,-0.0022,-0.0023,-0.0025,-0.0026,0,0,0.0312,0.0336,0.034,0.0366,0.0361,0.0372,0.038,0.0382,0.0401,0.0342,0.0356,0.029,0.025,0.0224,0.0169,0.0131,0.0108,0.0079,0.0075,0.005,0.0024,-0.0002,-0.0009,0.0078,0.0077,0.0077,-0.0011,0,0.0363,0.0425,0.0419,0.0478,0.0511,0.048,0.0498,0.0489,0.0472,0.0469,0.0391,0.0379,0.0298,0.0286,0.0235,0.0146,0.0101,0.0135,-0.001,-0.0014,-0.0033,-0.0013,0.0022,-0.0054,-0.0016,-0.0016,-0.0017,0,0.0416,0.0455,0.0526,0.0574,0.0585,0.0608,0.0639,0.0653,0.063,0.0616,0.058,0.0516,0.0457,0.0378,0.0237,0.0263,0.0154,0.0071,0.0065,0.0008,-0.0047,-0.0081,-0.0064,-0.0025,-0.0024,-0.0023,-0.0023,0,0.0469,0.0531,0.0595,0.0611,0.0651,0.0673,0.0693,0.0696,0.0737,0.0715,0.0735,0.0637,0.0607,0.0455,0.0278,0.0259,0.0116,0.0067,-0.0064,-0.0067,-0.0082,-0.0086,-0.0039,-0.0039,-0.0039,-0.0039,-0.0038,0,0.053,0.058,0.0625,0.066,0.0744,0.0744,0.083,0.0828,0.0859,0.0934,0.0821,0.0844,0.0625,0.0512,0.0325,0.0129,0.0149,-0.0048,-0.0088,-0.005,-0.005,-0.0062,-0.0064,-0.0042,-0.0041,-0.004,-0.004,0,0.0578,0.0603,0.0685,0.0745,0.0771,0.0832,0.0931,0.0999,0.1005,0.1096,0.1096,0.101,0.0865,0.063,0.0395,0.0214,0.0011,-0.007,-0.0011,-0.0043,-0.0164,-0.016,-0.0224,-0.0226,-0.0227,-0.0228,-0.0229,0,0.0609,0.0655,0.0753,0.0816,0.0848,0.0944,0.102,0.1067,0.1157,0.1209,0.1262,0.1148,0.1096,0.073,0.0389,0.0059,0.0011,-0.0133,-0.0171,-0.0148,-0.0181,-0.0175,-0.0169,-0.016,-0.016,-0.016,-0.016,0,0.0674,0.0703,0.0775,0.0905,0.0997,0.1123,0.1234,0.1324,0.1399,0.1467,0.1532,0.149,0.1154,0.0825,0.0365,0.0144,-0.0081,-0.0149,-0.0132,-0.0114,-0.0093,-0.0124,-0.0119,-0.0162,-0.0162,-0.0162,-0.0162,-0.0162,0.0721,0.0785,0.0879,0.1004,0.1121,0.1275,0.1393,0.1523,0.1667,0.1782,0.1734,0.1683,0.1301,0.072,0.0316,-0.0104,-0.0088,-0.0239,-0.0235,-0.0232,-0.0205,-0.0187,-0.0269,-0.027,-0.027,-0.027,-0.027,0,0.0786,0.086,0.0977,0.1128,0.1266,0.1323,0.1522,0.1641,0.182,0.1918,0.1968,0.1611,0.1231,0.0788,0.0159,-0.0216,-0.0235,-0.0327,-0.0276,-0.0271,-0.0267,-0.024,-0.0315,-0.0316,-0.0317,-0.0318,0,0,0.0821,0.0936,0.0994,0.1217,0.1335,0.1535,0.1657,0.1823,0.1933,0.2022,0.2003,0.1932,0.1377,0.0915,0.04,0.0036,-0.0024,-0.0024,0.0054,0.0182,0.019,-0.0172,-0.0119,0,0,0,0,0]}],[{"header":{"parameterUnit":"m.s-1","parameterCategory":2,"la1":30.2991,"la2":30.254,"lo1":-89.0895,"lo2":-89.0444,"dy":0.0017,"dx":0.0017,"nx":28,"ny":28,"refTime":"2025-02-07T09:00:00:Z","depth":"4","parameterNumber":2,"parameterNumberName":"U-component_of_CURRENTS"},"data":[0,0,0,0,0,0,0,0,0,0,0,0,0,0,0,0,0,0,0,0,0,0,0,0,0,0,0,0,0,0,0,0,0,0,0,0,0,0,0,0,0,0,0,0,0,0,0,0,0,0,0,0,0,0,0,0,0,0,0.2099,0.21,0,0.2185,0.2185,0.2186,0.2257,0.2258,0.2259,0.226,0.2361,0.2362,0.2364,0,0,0,0,0,0,0,0,0,0,0,0,0,0.1987,0.1988,0.2099,0.21,0.2101,0.2185,0.2185,0.2186,0.2257,0.2258,0.2259,0.226,0.236,0.2362,0.2364,0,0,0,0,0,0,0,0,0,0,0,0,0,0.2048,0.1989,0.2098,0.2148,0.2154,0.2184,0.2185,0.2187,0.2256,0.2258,0.2259,0.2261,0.2359,0.2362,0.2365,0.2351,0,0,0.2373,0.2374,0,0,0,0,0,0,0,0,0.2044,0.2051,0.214,0.2145,0.2151,0.2214,0.2183,0.2243,0.2256,0.2215,0.226,0.2262,0.2314,0.232,0.2329,0.2355,0.236,0.2373,0.2374,0.2376,0.2376,0,0,0,0,0,0,0,0.204,0.2048,0.213,0.2141,0.2148,0.2164,0.2174,0.2195,0.2253,0.2218,0.2224,0.2238,0.2317,0.2326,0.2332,0.2361,0.2373,0.2375,0.2377,0.2378,0.2525,0.2527,0,0,0,0,0,0,0.2034,0.2044,0.2127,0.2133,0.2104,0.2165,0.2176,0.219,0.2252,0.2264,0.2237,0.2241,0.2321,0.2329,0.2336,0.2447,0.2376,0.2378,0.2379,0.2522,0.2525,0.2528,0,0,0,0,0,0,0.2031,0.204,0.2124,0.2092,0.2105,0.2166,0.2181,0.2191,0.2248,0.2267,0.2278,0.2288,0.2322,0.2332,0.24,0.2447,0.2379,0.2382,0.252,0.2523,0.2527,0.2591,0,0,0,0,0,0,0.2027,0.2039,0.2067,0.2092,0.2106,0.2171,0.218,0.2192,0.2252,0.226,0.2314,0.2322,0.2324,0.2396,0.2402,0.2449,0.2384,0.2517,0.2521,0.2525,0.2586,0.2596,0.2605,0,0,0,0,0,0.2023,0.2048,0.2068,0.208,0.2137,0.2173,0.2182,0.2227,0.2254,0.2283,0.2327,0.2323,0.2428,0.24,0.2407,0.2456,0.2515,0.252,0.2525,0.2581,0.2594,0.2605,0,0,0,0,0,0,0.2016,0.2058,0.2081,0.212,0.2159,0.2186,0.2225,0.2252,0.2309,0.2333,0.2348,0.2359,0.2437,0.2439,0.2407,0.2513,0.2473,0.248,0.2513,0.2525,0.2535,0.2538,0.2386,0,0,0,0,0,0.2026,0.2061,0.2097,0.2135,0.2158,0.22,0.223,0.2262,0.2304,0.2333,0.237,0.2415,0.2455,0.2486,0.2517,0.2571,0.2582,0.261,0.2619,0.2627,0.2637,0.2695,0.2711,0.2545,0.2545,0.2545,0,0,0.2035,0.2065,0.2087,0.2138,0.2174,0.2212,0.2223,0.2282,0.2326,0.2333,0.242,0.2452,0.2478,0.2543,0.2578,0.2557,0.2682,0.2634,0.264,0.2645,0.2702,0.2718,0.2732,0.2549,0.2548,0.2547,0,0,0.2054,0.2099,0.213,0.2167,0.223,0.2253,0.228,0.2335,0.2381,0.2452,0.2475,0.2539,0.2598,0.2628,0.2647,0.2729,0.2731,0.2748,0.28,0.2857,0.2871,0.2883,0.2921,0.2937,0.2752,0.2752,0.2752,0,0.2069,0.2108,0.2147,0.2186,0.2223,0.2276,0.2317,0.2364,0.2439,0.2481,0.2494,0.2612,0.2636,0.2713,0.2747,0.2751,0.278,0.275,0.2869,0.2881,0.2892,0.2929,0.2945,0.2756,0.2756,0.2755,0.2755,0,0.2095,0.2146,0.2171,0.2236,0.2281,0.2329,0.239,0.2454,0.2514,0.2556,0.2664,0.2706,0.2775,0.2797,0.2798,0.2898,0.2891,0.2872,0.2835,0.2913,0.2946,0.2962,0.2761,0.276,0.2759,0.2758,0,0,0.2072,0.2171,0.2184,0.2224,0.2315,0.2347,0.2436,0.2515,0.2587,0.2667,0.2756,0.2835,0.2873,0.2898,0.2921,0.2973,0.3077,0.2967,0.2968,0.2997,0.3206,0.3005,0.3002,0.3087,0.309,0.3092,0.3198,0,0.2086,0.2156,0.2208,0.2287,0.2326,0.2407,0.248,0.2567,0.2651,0.2751,0.282,0.2917,0.2907,0.2966,0.3015,0.3071,0.3121,0.305,0.3134,0.3136,0.294,0.3013,0.3102,0.3209,0.3213,0.3215,0.3217,0,0.2084,0.2135,0.221,0.2314,0.2342,0.2405,0.2536,0.2613,0.2754,0.2828,0.2933,0.2993,0.3105,0.3081,0.3209,0.317,0.3199,0.3225,0.3229,0.3026,0.2962,0.3116,0.3244,0.3242,0.324,0.3238,0.3237,0,0.2025,0.2132,0.2193,0.223,0.2356,0.2422,0.2503,0.2643,0.2723,0.2898,0.2977,0.3102,0.3192,0.3253,0.3312,0.3283,0.3433,0.3391,0.3233,0.322,0.334,0.3326,0.3475,0.3475,0.3475,0.3475,0.3474,0,0.1991,0.2046,0.218,0.2212,0.2301,0.2407,0.2524,0.2628,0.2786,0.2876,0.3021,0.3106,0.3246,0.3336,0.336,0.3342,0.3475,0.3254,0.3236,0.3365,0.3353,0.3351,0.3335,0.3478,0.3478,0.3477,0.3476,0,0.1913,0.2001,0.208,0.2225,0.2276,0.2347,0.2522,0.2595,0.277,0.2898,0.2963,0.3153,0.3267,0.3366,0.3483,0.3386,0.3402,0.3361,0.3509,0.3497,0.3138,0.3125,0.3185,0.3178,0.3173,0.3169,0.3165,0,0.1873,0.1909,0.207,0.2116,0.2191,0.2312,0.2386,0.2571,0.2645,0.2892,0.2927,0.312,0.3217,0.3219,0.3341,0.3373,0.3332,0.331,0.3198,0.3133,0.3111,0.3106,0.31,0.3157,0.3155,0.3154,0.3153,0,0.1797,0.1876,0.1938,0.2034,0.2121,0.2198,0.2319,0.2357,0.2559,0.2743,0.2824,0.2894,0.3015,0.3095,0.3149,0.3162,0.3304,0.3254,0.3264,0.3158,0.31,0.3082,0.3083,0.3134,0.3137,0.3139,0.314,0,0.1744,0.1764,0.1854,0.192,0.2016,0.2041,0.2129,0.2206,0.2303,0.2562,0.259,0.2794,0.2982,0.2988,0.304,0.3039,0.2982,0.2865,0.2894,0.2915,0.2777,0.2659,0.2553,0,0,0,0,0,0.1675,0.1672,0.1726,0.1774,0.186,0.1914,0.2055,0.2145,0.2342,0.2329,0.2448,0.2547,0.2633,0.2751,0.2695,0.2925,0.2995,0.2846,0.2874,0.3034,0.3055,0.2915,0,0,0,0,0,0,0.162,0.1666,0.1673,0.1634,0.164,0.1709,0.1792,0.1928,0.1931,0.215,0.2216,0.2382,0.2513,0.2635,0.2643,0.2676,0.2637,0.298,0.2973,0.3022,0.3041,0.3058,0.2922,0,0,0,0,0]},{"header":{"parameterUnit":"m.s-1","parameterCategory":2,"la1":30.2991,"la2":30.254,"lo1":-89.0895,"lo2":-89.0444,"dy":0.0017,"dx":0.0017,"nx":28,"ny":28,"refTime":"2025-02-07T09:00:00:Z","depth":"4","parameterNumber":3,"parameterNumberName":"V-component_of_CURRENTS"},"data":[0,0,0,0,0,0,0,0,0,0,0,0,0,0,0,0,0,0,0,0,0,0,0,0,0,0,0,0,0,0,0,0,0,0,0,0,0,0,0,0,0,0,0,0,0,0,0,0,0,0,0,0,0,0,0,0,0,0,0.0062,0.0061,0,0.0014,0.0013,0.0013,-0.0023,-0.0023,-0.0023,-0.0023,-0.0093,-0.0095,-0.0097,0,0,0,0,0,0,0,0,0,0,0,0,0,0.0084,0.0084,0.0062,0.0061,0.0061,0.0014,0.0013,0.0013,-0.0023,-0.0023,-0.0023,-0.0023,-0.0093,-0.0095,-0.0097,0,0,0,0,0,0,0,0,0,0,0,0,0,0.0058,0.0084,0.0062,0.0039,0.0036,0.0014,0.0013,0.0012,-0.0023,-0.0023,-0.0023,-0.0024,-0.0092,-0.0094,-0.0097,-0.0107,0,0,-0.0105,-0.0106,0,0,0,0,0,0,0,0,0.006,0.0057,0.0042,0.004,0.0037,0.0003,-0.0004,-0.0028,-0.0023,-0.0002,-0.0023,-0.0024,-0.0062,-0.0067,-0.0077,-0.011,-0.0113,-0.0105,-0.0106,-0.0108,-0.0108,0,0,0,0,0,0,0,0.0062,0.0059,0.0041,0.0042,0.0039,0.0018,0.0014,-0.0009,-0.0031,-0.0004,-0.0006,-0.0009,-0.0064,-0.0075,-0.0079,-0.0114,-0.0105,-0.0107,-0.0109,-0.011,-0.0155,-0.0155,0,0,0,0,0,0,0.0073,0.0061,0.0043,0.004,0.005,0.0018,0.0013,0.0013,-0.0031,-0.0037,-0.0009,-0.001,-0.007,-0.0076,-0.0082,-0.0077,-0.0108,-0.011,-0.0111,-0.0155,-0.0155,-0.0155,0,0,0,0,0,0,0.0074,0.0072,0.0045,0.005,0.0046,0.0018,0.0017,0.0012,0.0005,-0.0034,-0.0041,-0.001,-0.0071,-0.0078,-0.0094,-0.0081,-0.0111,-0.0113,-0.0156,-0.0155,-0.0155,-0.0081,0,0,0,0,0,0,0.0074,0.0072,0.0077,0.0051,0.0046,0.0041,0.0018,0.0011,0.0004,0.0001,-0.0038,-0.0045,-0.0071,-0.009,-0.0097,-0.0085,-0.0115,-0.0156,-0.0155,-0.0155,-0.0083,-0.0078,-0.0073,0,0,0,0,0,0.0075,0.0087,0.0077,0.0075,0.0053,0.0042,0.0038,0.0015,0.0004,0.0006,-0.0019,-0.0043,-0.0091,-0.0092,-0.01,-0.0088,-0.0156,-0.0156,-0.0155,-0.0086,-0.0079,-0.0073,0,0,0,0,0,0,0.0098,0.0083,0.0073,0.0078,0.0065,0.0037,0.0038,0.0022,0.0002,0.0001,-0.0038,-0.0047,-0.0058,-0.0084,-0.0084,-0.0101,-0.0128,-0.0129,-0.0073,-0.0067,-0.0062,-0.0045,-0.0117,0,0,0,0,0,0.0106,0.011,0.0091,0.0095,0.0091,0.0065,0.0058,0.0045,0.0024,0.0015,-0.0012,-0.004,-0.0062,-0.0072,-0.0097,-0.0104,-0.0137,-0.0104,-0.0098,-0.0093,-0.0086,-0.0124,-0.0121,-0.0152,-0.0152,-0.0152,0,0,0.0115,0.0108,0.011,0.01,0.0087,0.0094,0.006,0.0057,0.0063,0.0011,0.001,-0.0023,-0.006,-0.0068,-0.0075,-0.0087,-0.0102,-0.0092,-0.0088,-0.0083,-0.0122,-0.0119,-0.0117,-0.0152,-0.0152,-0.0152,0,0,0.0142,0.0132,0.0147,0.0141,0.0131,0.0118,0.0121,0.0098,0.0088,0.008,0.0045,0.0023,-0.001,-0.0032,-0.0047,-0.0029,-0.0074,-0.0039,0.0006,-0.0031,-0.0029,-0.0027,-0.0064,-0.0066,-0.0034,-0.0033,-0.0033,0,0.0155,0.0171,0.0149,0.0163,0.0169,0.0134,0.0156,0.0141,0.0115,0.0114,0.009,0.0041,0.0008,0.0001,0.0007,-0.0015,-0.0045,-0.0013,-0.0023,-0.0022,-0.0021,-0.006,-0.0063,-0.003,-0.003,-0.0031,-0.0031,0,0.0192,0.0207,0.0216,0.0226,0.0228,0.024,0.0223,0.0218,0.0199,0.0183,0.0166,0.0114,0.0089,0.0072,0.0045,0.0038,0.0012,-0.0012,-0.0035,-0.0014,-0.0056,-0.0061,-0.0024,-0.0026,-0.0027,-0.0028,0,0,0.0218,0.024,0.0244,0.0266,0.0266,0.0275,0.0284,0.0287,0.0303,0.0259,0.0267,0.0218,0.0187,0.0167,0.0124,0.0089,0.0064,0.0047,0.0044,0.0018,-0.0018,-0.0035,-0.0043,0.0038,0.0038,0.0037,-0.0049,0,0.0256,0.0304,0.0303,0.0352,0.0377,0.0359,0.0376,0.0372,0.0359,0.0355,0.0294,0.0285,0.0225,0.0216,0.0171,0.0094,0.0055,0.009,-0.0042,-0.0046,-0.0058,-0.0047,0.0036,-0.0053,-0.0054,-0.0055,-0.0056,0,0.0293,0.0324,0.0382,0.0424,0.0434,0.0457,0.0485,0.0498,0.0481,0.047,0.0441,0.0391,0.034,0.0281,0.0156,0.0182,0.0092,0.0021,0.0016,-0.0028,-0.0071,-0.0082,-0.0065,-0.0064,-0.0063,-0.0063,-0.0062,0,0.0327,0.0379,0.0432,0.0446,0.0485,0.0507,0.0528,0.0534,0.0565,0.0549,0.056,0.048,0.0449,0.0326,0.0177,0.0169,0.0029,-0.0002,-0.0106,-0.0108,-0.01,-0.0101,-0.0093,-0.0093,-0.0093,-0.0093,-0.0093,0,0.0365,0.0408,0.0455,0.0483,0.0554,0.0561,0.0633,0.0634,0.0659,0.0708,0.0627,0.0628,0.0459,0.0355,0.0207,0.004,0.0049,-0.0095,-0.0129,-0.0068,-0.0064,-0.0104,-0.0104,-0.0096,-0.0095,-0.0095,-0.0094,0,0.0392,0.0419,0.0486,0.0545,0.0572,0.0623,0.0712,0.0764,0.0772,0.0828,0.0828,0.0745,0.061,0.0425,0.0225,0.0093,-0.0074,-0.0139,-0.0053,-0.0083,-0.0197,-0.0192,-0.0258,-0.0259,-0.026,-0.0261,-0.0262,0,0.0408,0.0445,0.0536,0.059,0.0623,0.0708,0.0772,0.0817,0.0878,0.0898,0.0923,0.0817,0.0734,0.0447,0.0238,-0.0047,-0.0096,-0.0188,-0.0201,-0.0185,-0.0212,-0.0206,-0.02,-0.0263,-0.0264,-0.0264,-0.0264,0,0.0441,0.0473,0.0532,0.0644,0.0725,0.0829,0.0918,0.0971,0.1024,0.1032,0.1011,0.086,0.0703,0.0462,0.0241,0.0032,-0.013,-0.02,-0.0199,-0.0213,-0.0193,-0.0217,-0.021,-0.0268,-0.0267,-0.0267,-0.0267,0,0.0466,0.0513,0.0593,0.0695,0.0803,0.0911,0.0961,0.1029,0.1083,0.1096,0.1087,0.091,0.0813,0.0503,0.0298,0.0091,0.0028,-0.0051,-0.006,-0.0059,0.0014,0.007,0.0052,0,0,0,0,0,0.0491,0.0548,0.064,0.0752,0.0862,0.0931,0.1043,0.1085,0.1132,0.1132,0.1115,0.0968,0.0671,0.054,0.0332,0.0252,-0.0025,-0.0003,-0.0123,-0.0288,-0.0284,-0.0235,0,0,0,0,0,0,0.0506,0.0591,0.0639,0.0782,0.0868,0.0997,0.1074,0.1111,0.111,0.112,0.097,0.0901,0.0612,0.0794,0.0325,0.0261,0.0151,-0.0139,-0.0144,-0.0291,-0.0287,-0.0284,-0.0232,0,0,0,0,0]}]]